星链-2329 (STARLINK-2329 )

导读

STARLINK-2329是美国太空探索技术公司(SpaceX)星链计划中的一颗低轨通信卫星,于2021年3月14日发射升空。它部署在近地轨道,属于星链第一代卫星,该计划旨在构建全球覆盖的低时延卫星宽带网络,可为偏远地区提供网络接入服务,同时也具备潜在军事应用价值,是全球规模最大的商业卫星星座成员之一。

基本信息
目录编号:
47873
目录名称:
STARLINK-2329
国际标识:
2021-021P
轨道中心:
EARTH
卫星名称:
星链-2329
卫星全名:
星链-2329 (STARLINK-2329 )
卫星状态:
在轨 (已飞行1922 天)
发射日期:
2021-03-14 UTC
国别 :
美国 (US)
星等 :
--
轨道信息
数据来源 国际轨道数据 AOE轨道数据
星历时间 2026-06-18T10:33:58+0800
14小时前
查看轨道信息
2026-06-15T00:00:00+0800
4天前
查看轨道信息
半长轴 6848.878km 6848.906km
偏心率 0.0000974 0.0001397
轨道倾角 53.157° 53.155°
近地点辐角 108.778° 87.458°
升交点赤经 148.272° 164.289°
平近点角 251.332° 12.067°
近地点 470.073km 469.812km
远地点 471.409km 471.726km
周期 94.013分钟 94.014分钟
每日圈数 15.316999 15.316906
详细信息
固有亮度:
5
最大亮度:
2.5
卫星平台:
Starlink V1.0
覆盖范围:
全球
运营商:
太空探索技术公司
运营商所在国:
美国
制造商(研发单位):
太空探索技术公司
制造商所在国:
美国
使用方式:
暂无
卫星简介
星链(Starlink)计划是由太空探索技术公司(SpaceX)提出的一个巨型低轨卫星互联网星座项目,计划在2019年至2024年间在太空搭建由约1.2万颗卫星组成的“星链”网络,其中1584颗将部署在地球上空550千米处的近地轨道,并从2020年开始工作。该卫星仍在工作。
2D轨道图
3D轨道图
轨道高度分析图
轨道倾角分析图
轨道综合分析图
查看轨道综合分析图